FW1147 Weather Reports


time (UTC)temp
C
wind
direction
speed
KPH
gust
KPH
rain 1hr
cm
rain 24hr
cm
rain mn
cm
humidity
%
barometer
mb
20260507125023 5 261 22.5 32.2 0.00 0.51 0.00 78 1013.1
20260507124543 5 259 20.9 29.0 0.00 0.51 0.00 79 1013.1
20260507124023 5 261 22.5 29.0 0.00 0.51 0.00 80 1013.1
20260507123521 5 251 24.1 30.6 0.00 0.51 0.00 80 1013.1
20260507123042 4 254 24.1 33.8 0.00 0.51 0.00 80 1013.1
20260507122522 4 259 25.7 33.8 0.00 0.51 0.00 81 1013.0
20260507122023 3 262 25.7 32.2 0.00 0.51 0.00 83 1013.0
20260507121538 3 252 22.5 32.2 0.00 0.51 0.00 83 1013.0
20260507121022 3 252 24.1 32.2 0.00 0.51 0.00 83 1012.9
20260507120523 3 258 24.1 30.6 0.00 0.51 0.00 84 1012.9
20260507120056 3 252 22.5 30.6 0.00 0.51 0.00 84 1012.9
20260507115524 3 267 22.5 30.6 0.00 0.51 0.00 84 1013.1
20260507115023 3 258 20.9 29.0 0.00 0.51 0.00 84 1013.1
20260507114536 2 257 20.9 30.6 0.00 0.51 0.00 85 1013.1
20260507114022 2 261 24.1 33.8 0.00 0.51 0.00 86 1013.2
20260507113522 2 259 24.1 33.8 0.00 0.51 0.00 86 1013.2
20260507113047 2 255 27.4 37.0 0.00 0.51 0.00 86 1013.4
20260507112522 2 246 27.4 38.6 0.00 0.51 0.00 87 1013.5
20260507112022 2 265 27.4 38.6 0.00 0.51 0.00 87 1013.4
20260507111540 2 261 27.4 33.8 0.00 0.51 0.00 87 1013.4
20260507111022 2 243 24.1 32.2 0.00 0.51 0.00 86 1013.5
20260507110524 2 254 22.5 32.2 0.00 0.51 0.00 85 1013.5
20260507110040 3 245 24.1 32.2 0.00 0.51 0.00 85 1013.5
20260507105522 3 261 25.7 33.8 0.00 0.51 0.00 85 1013.4
20260507105023 2 259 25.7 33.8 0.00 0.51 0.00 86 1013.4
20260507104539 2 265 24.1 33.8 0.00 0.51 0.00 86 1013.5
20260507104021 2 254 25.7 33.8 0.00 0.51 0.00 86 1013.6
20260507103520 2 261 25.7 33.8 0.00 0.51 0.00 86 1013.7
20260507103035 2 259 25.7 38.6 0.00 0.51 0.00 86 1013.6
20260507102519 2 252 27.4 38.6 0.00 0.51 0.00 87 1013.6
20260507102021 2 255 27.4 38.6 0.00 0.51 0.00 87 1013.8
20260507101535 2 240 30.6 38.6 0.00 0.51 0.00 87 1014.0
20260507101021 2 252 27.4 33.8 0.00 0.51 0.00 87 1013.9
20260507100520 2 253 25.7 33.8 0.00 0.51 0.00 87 1014.0
20260507100038 2 252 27.4 33.8 0.00 0.51 0.00 87 1014.1
20260507095520 2 253 27.4 35.4 0.00 0.53 0.00 87 1014.1
20260507095019 2 252 25.7 35.4 0.00 0.53 0.00 88 1014.2
20260507094539 2 248 25.7 35.4 0.00 0.53 0.00 88 1014.4
20260507094022 2 248 25.7 35.4 0.00 0.53 0.00 88 1014.4
20260507093522 2 252 25.7 35.4 0.00 0.53 0.00 88 1014.4
20260507093038 2 250 25.7 35.4 0.00 0.53 0.00 88 1014.6
20260507092520 2 249 25.7 33.8 0.00 0.53 0.00 89 1014.6
20260507092023 2 252 25.7 33.8 0.00 0.53 0.00 89 1014.6
20260507091539 2 249 25.7 33.8 0.00 0.53 0.00 89 1014.7
20260507091023 2 244 24.1 33.8 0.00 0.53 0.00 90 1014.6
20260507090520 2 249 24.1 33.8 0.00 0.53 0.00 90 1014.7
20260507090033 2 237 20.9 29.0 0.00 0.53 0.00 90 1014.7
20260507085520 2 248 22.5 29.0 0.00 0.64 0.00 90 1014.8
20260507085019 2 249 22.5 30.6 0.00 0.64 0.00 90 1014.9
20260507084535 2 248 22.5 30.6 0.00 0.64 0.00 90 1015.0
20260507084020 2 248 20.9 30.6 0.00 0.64 0.00 91 1015.0
20260507083519 2 246 22.5 30.6 0.00 0.64 0.00 91 1015.1
20260507083039 2 244 22.5 29.0 0.00 0.64 0.00 91 1015.1
20260507082518 2 238 20.9 29.0 0.00 0.64 0.00 91 1015.3
20260507082019 2 250 20.9 29.0 0.00 0.64 0.00 91 1015.3
20260507081545 2 232 20.9 29.0 0.00 0.64 0.00 90 1015.4
20260507081023 2 243 20.9 27.4 0.00 0.64 0.00 91 1015.6
20260507080520 2 251 22.5 29.0 0.00 0.64 0.00 91 1015.7
20260507080043 2 257 22.5 29.0 0.00 0.64 0.00 91 1015.7
20260507075521 2 246 22.5 29.0 0.00 0.69 0.00 91 1015.7
20260507075023 2 244 22.5 29.0 0.00 0.69 0.00 91 1015.7
20260507074539 2 251 20.9 29.0 0.00 0.69 0.00 91 1015.8
20260507074026 2 238 22.5 27.4 0.00 0.69 0.00 92 1015.9
20260507073523 1 250 20.9 27.4 0.00 0.69 0.00 92 1016.0
20260507073046 1 246 20.9 27.4 0.00 0.69 0.00 92 1016.0
20260507072522 1 227 19.3 25.7 0.00 0.69 0.00 92 1016.2
20260507072020 1 242 19.3 27.4 0.00 0.69 0.00 92 1016.2
20260507071539 2 241 20.9 29.0 0.00 0.69 0.00 91 1016.2
20260507071021 2 238 22.5 29.0 0.00 0.69 0.00 92 1016.2
20260507070522 2 229 20.9 29.0 0.00 0.69 0.00 92 1016.4
20260507070041 2 246 19.3 25.7 0.00 0.69 0.00 92 1016.6
20260507065521 2 243 17.7 25.7 0.00 0.79 0.00 92 1016.6
20260507065022 2 233 19.3 27.4 0.00 0.79 0.00 92 1016.7
20260507064543 2 234 19.3 27.4 0.00 0.79 0.00 92 1016.7
20260507064022 1 227 19.3 27.4 0.00 0.79 0.00 92 1016.8
20260507063521 1 247 17.7 24.1 0.00 0.79 0.00 92 1016.8
20260507063048 1 247 17.7 25.7 0.00 0.79 0.00 92 1016.9
20260507062526 1 242 19.3 25.7 0.00 0.79 0.00 92 1016.9
20260507062023 1 246 20.9 25.7 0.00 0.79 0.00 92 1016.9
20260507061542 1 248 19.3 24.1 0.00 0.79 0.00 92 1017.0
20260507061024 1 240 16.1 22.5 0.00 0.79 0.00 92 1017.0
20260507060522 1 241 17.7 22.5 0.00 0.79 0.00 92 1017.1
20260507060041 1 244 17.7 22.5 0.00 0.79 0.00 92 1017.2
20260507055522 1 243 16.1 20.9 0.00 0.91 0.79 92 1017.2
20260507055021 1 236 16.1 20.9 0.00 0.91 0.79 92 1017.1
20260507054539 1 244 16.1 20.9 0.00 0.91 0.79 91 1017.2
20260507054022 1 244 16.1 20.9 0.00 0.91 0.79 91 1017.3
20260507053522 2 244 17.7 20.9 0.00 0.91 0.79 92 1017.4
20260507053037 2 245 16.1 20.9 0.00 0.91 0.79 92 1017.4
20260507052522 2 252 16.1 20.9 0.00 0.91 0.79 92 1017.5
20260507052024 2 239 16.1 20.9 0.00 0.91 0.79 92 1017.5
20260507051538 2 243 17.7 20.9 0.00 0.91 0.79 92 1017.5
20260507051024 1 249 16.1 20.9 0.00 0.91 0.79 92 1017.6
20260507050523 1 243 16.1 20.9 0.00 0.91 0.79 92 1017.6
20260507050042 1 246 16.1 20.9 0.00 0.91 0.79 92 1017.8
20260507045524 1 252 14.5 20.9 0.00 1.02 0.79 92 1017.8
20260507045024 1 254 16.1 20.9 0.00 1.02 0.79 92 1017.9
20260507044542 1 245 14.5 17.7 0.00 1.02 0.79 92 1017.8
20260507044023 1 244 12.9 16.1 0.00 1.02 0.79 92 1017.7
20260507043522 1 245 12.9 16.1 0.00 1.02 0.79 92 1017.8
20260507043041 1 232 11.3 16.1 0.00 1.02 0.79 91 1017.8
20260507042523 1 240 11.3 14.5 0.00 1.02 0.79 91 1017.9
20260507042024 1 244 11.3 14.5 0.00 1.02 0.79 91 1017.9
20260507041545 1 240 11.3 14.5 0.00 1.02 0.79 91 1017.9
20260507041023 1 238 11.3 14.5 0.00 1.02 0.79 90 1018.0
20260507040521 2 207 9.7 14.5 0.00 1.02 0.79 90 1017.8
20260507040048 2 227 9.7 16.1 0.00 1.02 0.79 90 1017.9
20260507035520 2 228 9.7 16.1 0.00 1.22 0.79 90 1018.0
20260507035023 2 239 12.9 17.7 0.00 1.22 0.79 90 1018.0
20260507034554 2 242 14.5 17.7 0.00 1.22 0.79 90 1018.0
20260507034024 2 254 14.5 16.1 0.00 1.22 0.79 90 1018.1
20260507033523 2 250 12.9 17.7 0.00 1.22 0.79 90 1018.0
20260507033101 2 254 12.9 17.7 0.00 1.22 0.79 90 1018.1
20260507032523 2 243 14.5 17.7 0.00 1.22 0.79 90 1018.1
20260507032023 2 252 12.9 16.1 0.00 1.22 0.79 90 1018.1
20260507031540 2 250 12.9 14.5 0.00 1.22 0.79 90 1018.1
20260507031022 2 252 12.9 14.5 0.00 1.22 0.79 90 1018.1
20260507030521 2 244 11.3 14.5 0.00 1.22 0.79 89 1018.1
20260507030039 2 239 9.7 12.9 0.00 1.22 0.79 89 1018.2
20260507025522 2 234 9.7 11.3 0.00 1.30 0.79 89 1018.1
20260507025022 2 229 9.7 11.3 0.00 1.30 0.79 89 1018.0
20260507024550 3 226 8.0 11.3 0.00 1.30 0.79 88 1018.0
20260507024020 3 225 8.0 9.7 0.00 1.30 0.79 88 1018.0
20260507023521 3 225 8.0 9.7 0.00 1.30 0.79 88 1017.9
20260507023035 3 223 8.0 9.7 0.00 1.30 0.79 88 1017.9
20260507022522 3 223 8.0 9.7 0.00 1.30 0.79 87 1018.0
20260507022022 3 228 8.0 9.7 0.00 1.30 0.79 87 1018.0
20260507021543 3 227 8.0 9.7 0.00 1.30 0.79 87 1018.0
20260507021025 4 229 6.4 9.7 0.00 1.30 0.79 87 1018.0
20260507020522 4 229 6.4 9.7 0.00 1.30 0.79 86 1018.0
20260507020045 5 229 6.4 9.7 0.00 1.30 0.79 86 1018.1
20260507015521 5 223 6.4 9.7 0.00 1.45 0.79 85 1018.1
20260507015021 5 221 8.0 9.7 0.00 1.45 0.79 85 1018.0
20260507014542 5 220 6.4 9.7 0.00 1.45 0.79 84 1018.0
20260507014023 6 215 6.4 11.3 0.00 1.45 0.79 84 1017.9
20260507013521 6 200 6.4 11.3 0.00 1.45 0.79 84 1017.8
20260507013040 6 211 8.0 11.3 0.00 1.45 0.79 84 1017.9
20260507012522 6 207 6.4 12.9 0.00 1.45 0.79 83 1017.9
20260507012024 6 202 8.0 12.9 0.00 1.45 0.79 83 1017.9
20260507011539 6 207 8.0 12.9 0.00 1.45 0.79 82 1018.0
20260507011021 6 211 9.7 12.9 0.00 1.45 0.79 83 1018.0
20260507010525 6 224 9.7 12.9 0.00 1.45 0.79 82 1017.9
20260507010039 7 225 9.7 11.3 0.00 1.45 0.79 82 1017.9
20260507005522 7 210 6.4 9.7 0.03 1.60 0.79 83 1017.9
20260507005021 7 202 4.8 14.5 0.03 1.60 0.79 83 1018.0
20260507004537 7 234 8.0 16.1 0.03 1.60 0.79 83 1018.0
20260507004023 6 235 11.3 16.1 0.03 1.60 0.79 84 1017.9
20260507003524 6 238 11.3 17.7 0.03 1.60 0.79 82 1018.1
20260507003045 6 248 11.3 19.3 0.03 1.60 0.79 82 1018.0
20260507002522 7 245 14.5 20.9 0.03 1.60 0.79 82 1018.1
20260507002022 7 253 16.1 20.9 0.03 1.60 0.79 84 1018.1
20260507001603 6 261 4.8 11.3 0.03 1.60 0.79 85 1018.1
20260507001022 6 302 0.0 8.0 0.03 1.60 0.79 84 1018.2
20260507000522 6 302 3.2 14.5 0.03 1.60 0.79 84 1018.1
20260507000038 6 328 6.4 14.5 0.03 1.60 0.79 83 1018.2
20260506235523 6 305 4.8 14.5 0.00 1.65 0.76 82 1018.2
20260506235025 6 227 8.0 14.5 0.00 1.65 0.76 80 1018.2
20260506234547 7 265 9.7 14.5 0.00 1.65 0.76 79 1018.2
20260506234022 7 229 4.8 12.9 0.00 1.65 0.76 79 1018.2
20260506233522 7 177 4.8 14.5 0.00 1.65 0.76 79 1018.1
20260506233041 7 207 9.7 16.1 0.00 1.65 0.76 79 1018.2
20260506232521 7 203 8.0 19.3 0.00 1.65 0.76 78 1018.1
20260506232021 7 208 9.7 19.3 0.00 1.65 0.76 79 1018.1
20260506231545 7 143 9.7 17.7 0.00 1.65 0.76 80 1018.1
20260506231022 7 203 8.0 17.7 0.00 1.65 0.76 79 1018.1
20260506230521 7 188 9.7 16.1 0.00 1.65 0.76 81 1018.0
20260506230040 7 180 6.4 16.1 0.00 1.65 0.76 81 1018.0
20260506225522 7 212 9.7 16.1 0.00 1.68 0.76 82 1017.9
20260506225023 7 221 9.7 16.1 0.00 1.68 0.76 83 1018.0
20260506224549 7 219 11.3 16.1 0.00 1.68 0.76 83 1017.9
20260506224024 7 216 11.3 16.1 0.00 1.68 0.76 83 1018.0
20260506223521 7 215 11.3 17.7 0.00 1.68 0.76 83 1018.0
20260506223035 7 224 11.3 20.9 0.00 1.68 0.76 83 1018.1
20260506222522 7 194 12.9 20.9 0.00 1.68 0.76 84 1018.1
20260506222021 7 210 12.9 19.3 0.00 1.68 0.76 83 1018.0
20260506221542 6 193 11.3 19.3 0.00 1.68 0.76 83 1017.9
20260506221022 7 198 12.9 19.3 0.00 1.68 0.76 82 1018.0
20260506220522 7 238 14.5 19.3 0.00 1.68 0.76 82 1018.0
20260506220058 7 203 6.4 14.5 0.00 1.68 0.76 80 1018.1
20260506215523 7 215 1.6 4.8 0.00 1.70 0.76 79 1018.1
20260506215023 7 237 0.0 9.7 0.00 1.70 0.76 80 1018.1
20260506214542 7 335 3.2 9.7 0.00 1.70 0.76 81 1018.1
20260506214023 7 13 4.8 8.0 0.00 1.70 0.76 81 1018.2
20260506213521 7 58 3.2 9.7 0.00 1.70 0.76 82 1018.1
20260506213038 7 15 3.2 11.3 0.00 1.70 0.76 83 1018.3
20260506212525 7 352 4.8 11.3 0.00 1.70 0.76 82 1018.3
20260506212022 7 360 4.8 12.9 0.00 1.70 0.76 83 1018.4
20260506211542 6 22 6.4 14.5 0.00 1.70 0.76 83 1018.3
20260506211022 6 24 6.4 14.5 0.00 1.70 0.76 83 1018.5
20260506210522 7 33 8.0 16.1 0.00 1.70 0.76 83 1018.5
20260506210043 7 55 4.8 16.1 0.00 1.70 0.76 84 1018.5
20260506205522 7 38 6.4 16.1 0.00 1.70 0.76 85 1018.6
20260506205022 7 32 8.0 16.1 0.00 1.70 0.76 83 1018.7
20260506204542 7 30 6.4 14.5 0.00 1.70 0.76 85 1018.7
20260506204022 6 5 1.6 12.9 0.00 1.70 0.76 84 1018.9
20260506203523 6 336 3.2 6.4 0.00 1.70 0.76 83 1018.8
20260506203041 6 30 1.6 6.4 0.00 1.70 0.76 85 1018.8
20260506202523 6 0 0.0 6.4 0.00 1.70 0.76 86 1018.8
20260506202025 6 235 3.2 6.4 0.00 1.70 0.76 84 1018.8
20260506201539 6 269 1.6 8.0 0.00 1.70 0.76 87 1018.9
20260506201022 6 146 1.6 8.0 0.00 1.70 0.76 86 1018.8
20260506200520 6 0 1.6 11.3 0.00 1.70 0.76 86 1018.8
20260506200038 6 163 4.8 14.5 0.00 1.70 0.76 88 1018.8
20260506195522 6 134 6.4 14.5 0.00 1.70 0.76 89 1018.9
20260506195023 6 148 4.8 12.9 0.00 1.70 0.76 89 1018.8
20260506194538 6 111 4.8 12.9 0.00 1.70 0.76 89 1018.8
20260506194025 6 159 6.4 14.5 0.00 1.70 0.76 90 1018.8
20260506193522 6 130 6.4 14.5 0.03 1.70 0.76 90 1018.8
20260506193048 6 126 9.7 16.1 0.03 1.70 0.76 90 1018.7
20260506192521 5 95 8.0 17.7 0.03 1.70 0.76 90 1018.7
20260506192021 5 95 11.3 17.7 0.03 1.70 0.76 90 1018.8
20260506191541 5 120 6.4 16.1 0.03 1.70 0.76 91 1018.8
20260506191021 5 107 9.7 16.1 0.03 1.70 0.76 91 1018.9
20260506190522 5 111 6.4 16.1 0.03 1.70 0.76 91 1019.1
20260506190043 5 146 9.7 16.1 0.03 1.70 0.76 91 1019.1
20260506185521 5 124 6.4 17.7 0.03 1.70 0.76 92 1019.1
20260506185021 5 110 8.0 17.7 0.03 1.70 0.76 92 1019.2
20260506184539 5 134 12.9 17.7 0.03 1.70 0.76 92 1019.2
20260506184023 5 115 11.3 17.7 0.03 1.70 0.76 92 1019.2
20260506183522 5 126 9.7 16.1 0.00 1.68 0.74 92 1019.2
20260506183041 4 71 11.3 16.1 0.00 1.68 0.74 92 1019.4
20260506182521 4 99 9.7 17.7 0.00 1.68 0.74 92 1019.3
20260506182026 4 109 9.7 17.7 0.00 1.68 0.74 92 1019.4
20260506181558 4 78 8.0 20.9 0.00 1.68 0.74 93 1019.5
20260506181022 4 75 12.9 20.9 0.00 1.68 0.74 93 1019.5
20260506180522 4 71 9.7 19.3 0.00 1.68 0.74 93 1019.5
20260506180048 4 84 8.0 14.5 0.00 1.68 0.74 93 1019.5
20260506175525 4 70 8.0 17.7 0.00 1.70 0.74 93 1019.6
20260506175024 4 87 11.3 17.7 0.00 1.70 0.74 93 1019.5
20260506174541 4 87 9.7 16.1 0.00 1.70 0.74 93 1019.4
20260506174021 3 85 11.3 16.1 0.00 1.70 0.74 94 1019.5
20260506173524 3 85 9.7 16.1 0.00 1.70 0.74 94 1019.5
20260506173052 3 66 9.7 16.1 0.00 1.70 0.74 94 1019.4
20260506172524 3 102 9.7 16.1 0.00 1.70 0.74 94 1019.5
20260506172023 3 90 9.7 16.1 0.00 1.70 0.74 94 1019.5
20260506171546 3 82 9.7 14.5 0.00 1.70 0.74 94 1019.5
20260506171021 3 82 9.7 14.5 0.00 1.70 0.74 94 1019.6
20260506170523 3 88 6.4 14.5 0.00 1.70 0.74 94 1019.5
20260506170038 3 67 8.0 14.5 0.00 1.70 0.74 94 1019.5
20260506165523 3 71 6.4 9.7 0.03 1.75 0.74 94 1019.5
20260506165023 3 38 4.8 9.7 0.03 1.75 0.74 94 1019.5
20260506164533 3 46 4.8 9.7 0.03 1.75 0.74 94 1019.5
20260506164021 3 56 4.8 8.0 0.03 1.75 0.74 94 1019.5
20260506163522 3 40 3.2 8.0 0.03 1.75 0.74 95 1019.5
20260506163041 3 22 1.6 8.0 0.05 1.75 0.74 95 1019.5
20260506162521 3 20 4.8 8.0 0.05 1.75 0.74 95 1019.4
20260506162020 3 33 1.6 8.0 0.05 1.75 0.74 95 1019.4
20260506161541 2 50 3.2 8.0 0.08 1.75 0.74 94 1019.4
20260506161021 2 57 3.2 11.3 0.08 1.75 0.74 95 1019.3
20260506160522 2 57 4.8 11.3 0.08 1.75 0.74 95 1019.3
20260506160052 2 62 3.2 8.0 0.10 1.75 0.74 95 1019.3
20260506155523 2 48 3.2 8.0 0.10 1.78 0.71 95 1019.3
20260506155023 2 13 3.2 8.0 0.10 1.78 0.71 95 1019.3
20260506154540 2 25 3.2 8.0 0.13 1.78 0.71 95 1019.2
20260506154023 2 352 4.8 9.7 0.15 1.78 0.71 95 1019.2
20260506153523 2 346 3.2 11.3 0.15 1.78 0.71 95 1019.1
20260506153033 2 11 4.8 11.3 0.15 1.75 0.69 95 1019.2
20260506152522 2 30 3.2 8.0 0.18 1.75 0.69 95 1019.1
20260506152021 2 33 4.8 12.9 0.18 1.75 0.69 95 1018.9
20260506151535 2 5 3.2 12.9 0.18 1.73 0.66 95 1018.7
20260506151022 2 76 8.0 12.9 0.20 1.73 0.66 95 1018.6
20260506150523 2 65 6.4 12.9 0.20 1.73 0.66 95 1018.5
20260506150048 1 53 4.8 9.7 0.20 1.70 0.64 95 1018.4
20260506145520 1 32 3.2 9.7 0.20 1.73 0.61 95 1018.5
20260506145021 1 38 3.2 6.4 0.20 1.73 0.61 95 1018.5
20260506144547 1 352 1.6 6.4 0.20 1.70 0.58 95 1018.6
20260506144023 1 351 3.2 8.0 0.20 1.68 0.56 95 1018.8
20260506143523 1 346 3.2 8.0 0.23 1.68 0.56 94 1018.7
20260506143038 1 352 3.2 6.4 0.20 1.65 0.53 94 1018.7
20260506142523 1 11 3.2 4.8 0.20 1.63 0.51 94 1018.7
20260506142019 1 11 1.6 3.2 0.20 1.63 0.51 94 1018.5
20260506141542 1 11 0.0 3.2 0.18 1.60 0.48 94 1018.5
20260506141022 0 11 0.0 3.2 0.15 1.57 0.46 94 1018.4
20260506140523 0 11 1.6 3.2 0.15 1.57 0.46 94 1018.4
20260506140036 0 11 1.6 3.2 0.13 1.55 0.43 94 1018.2
20260506135522 0 11 0.0 1.6 0.13 1.57 0.41 94 1018.3
20260506135023 0 0 0.0 1.6 0.10 1.55 0.38 94 1018.4
20260506134547 0 0 0.0 0.0 0.10 1.55 0.38 94 1018.4
20260506134020 0 0 0.0 0.0 0.08 1.52 0.36 94 1018.5
20260506133523 0 0 0.0 3.2 0.05 1.47 0.33 94 1018.6
20260506133040 0 0 0.0 3.2 0.03 1.47 0.30 94 1018.5
20260506132537 0 0 0.0 3.2 0.03 1.47 0.30 94 1018.5
20260506132022 0 0 0.0 1.6 0.03 1.47 0.30 94 1018.4
20260506131555 0 0 0.0 3.2 0.03 1.47 0.30 94 1018.2
20260506131023 0 0 0.0 3.2 0.03 1.47 0.30 94 1018.3
20260506130527 0 11 0.0 3.2 0.03 1.47 0.30 94 1018.1
20260506130041 0 0 0.0 1.6 0.03 1.47 0.30 94 1018.1
20260506125520 0 0 0.0 1.6 0.00 1.47 0.28 94 1018.1